When you browse on this site, cookies collect data to enhance your experience and personalize the content and advertising you see.
Visit our Privacy Policy to learn more. By continuing to use the site, you agree to this use of cookies and data.
  • In Austria
  • List of Countries
  • For 7 days
  • Water Temperature
  • Satellite Maps
  • Weather Map
  • News
  • Weather Widgets
  • user-avatar
    Login

    Hourly Weather Sevan

    Today, 25 June, Tuesday

    Time Temperature Precipitation Wind Pressure Humidity
    00:00 +20°C° 0.1 mm 3 mps 643 mmHg 67%
    01:00 +19°C° 0 mm 2 mps 643 mmHg 68%
    02:00 +19°C° 0 mm 2 mps 643 mmHg 69%
    03:00 +19°C° 0 mm 2 mps 643 mmHg 69%
    04:00 +19°C° 0 mm 2 mps 643 mmHg 69%
    05:00 +20°C° 0 mm 2 mps 643 mmHg 68%
    06:00 +21°C° 0 mm 2 mps 644 mmHg 68%
    07:00 +23°C° 0 mm 1 mps 644 mmHg 63%
    08:00 +25°C° 0 mm 1 mps 645 mmHg 58%
    09:00 +27°C° 0 mm 1 mps 645 mmHg 53%
    10:00 +28°C° 0.1 mm 1 mps 645 mmHg 49%
    11:00 +29°C° 0.1 mm 2 mps 645 mmHg 45%
    12:00 +31°C° 0.1 mm 2 mps 645 mmHg 41%
    13:00 +31°C° 0.2 mm 2 mps 645 mmHg 42%
    14:00 +31°C° 0.2 mm 2 mps 645 mmHg 42%
    15:00 +31°C° 0.2 mm 3 mps 645 mmHg 43%
    16:00 +30°C° 0.2 mm 3 mps 645 mmHg 47%
    17:00 +29°C° 0.2 mm 4 mps 644 mmHg 51%
    18:00 +28°C° 0.2 mm 4 mps 644 mmHg 56%
    19:00 +26°C° 0.1 mm 4 mps 644 mmHg 58%
    20:00 +25°C° 0.1 mm 4 mps 644 mmHg 60%
    21:00 +22°C° 0.1 mm 4 mps 644 mmHg 63%
    22:00 +21°C° 0 mm 4 mps 644 mmHg 63%
    23:00 +21°C° 0 mm 3 mps 644 mmHg 63%

    Tomorrow, 26 June, Wednesday

    Time Temperature Precipitation Wind Pressure Humidity
    00:00 +20°C° 0 mm 3 mps 644 mmHg 64%
    01:00 +20°C° 0 mm 3 mps 643 mmHg 64%
    02:00 +20°C° 0 mm 3 mps 643 mmHg 65%
    03:00 +19°C° 0 mm 2 mps 643 mmHg 66%
    04:00 +20°C° 0 mm 2 mps 644 mmHg 66%
    05:00 +20°C° 0 mm 2 mps 644 mmHg 66%
    06:00 +21°C° 0 mm 2 mps 644 mmHg 65%
    07:00 +24°C° 0 mm 2 mps 644 mmHg 60%
    08:00 +25°C° 0 mm 1 mps 645 mmHg 55%
    09:00 +27°C° 0 mm 1 mps 645 mmHg 50%
    10:00 +28°C° 0.1 mm 1 mps 645 mmHg 47%
    11:00 +29°C° 0.1 mm 1 mps 645 mmHg 45%
    12:00 +30°C° 0.1 mm 1 mps 645 mmHg 42%
    13:00 +31°C° 0.2 mm 2 mps 645 mmHg 41%
    14:00 +31°C° 0.2 mm 2 mps 645 mmHg 41%
    15:00 +31°C° 0.2 mm 2 mps 645 mmHg 40%
    16:00 +30°C° 0.2 mm 3 mps 644 mmHg 45%
    17:00 +29°C° 0.2 mm 3 mps 644 mmHg 50%
    18:00 +28°C° 0.2 mm 4 mps 643 mmHg 55%
    19:00 +26°C° 0.3 mm 4 mps 643 mmHg 58%
    20:00 +23°C° 0.3 mm 4 mps 643 mmHg 62%
    21:00 +21°C° 0.3 mm 3 mps 643 mmHg 66%
    22:00 +21°C° 0.5 mm 3 mps 642 mmHg 67%
    23:00 +20°C° 0.5 mm 3 mps 642 mmHg 68%

    Day after tomorrow, 27 June, Thursday

    Time Temperature Precipitation Wind Pressure Humidity
    00:00 +20°C° 0.5 mm 2 mps 642 mmHg 69%
    01:00 +19°C° 0.3 mm 2 mps 642 mmHg 70%
    02:00 +19°C° 0.3 mm 2 mps 642 mmHg 72%
    03:00 +18°C° 0.3 mm 2 mps 641 mmHg 73%
    04:00 +19°C° 0.3 mm 2 mps 642 mmHg 73%
    05:00 +19°C° 0.3 mm 2 mps 642 mmHg 72%
    06:00 +21°C° 0.3 mm 1 mps 642 mmHg 72%
    07:00 +22°C° 0.3 mm 1 mps 642 mmHg 67%
    08:00 +24°C° 0.3 mm 1 mps 642 mmHg 62%
    09:00 +25°C° 0.3 mm 1 mps 642 mmHg 57%
    10:00 +26°C° 0.7 mm 1 mps 642 mmHg 54%
    11:00 +27°C° 0.7 mm 1 mps 642 mmHg 52%
    12:00 +28°C° 0.7 mm 2 mps 642 mmHg 49%
    13:00 +28°C° 0.5 mm 2 mps 642 mmHg 49%
    14:00 +29°C° 0.5 mm 2 mps 641 mmHg 49%
    15:00 +29°C° 0.5 mm 3 mps 641 mmHg 49%
    16:00 +28°C° 0.6 mm 3 mps 641 mmHg 54%
    17:00 +27°C° 0.6 mm 3 mps 640 mmHg 58%
    18:00 +26°C° 0.6 mm 4 mps 640 mmHg 62%
    19:00 +24°C° 0.9 mm 3 mps 640 mmHg 65%
    20:00 +21°C° 0.9 mm 3 mps 640 mmHg 67%
    21:00 +20°C° 0.9 mm 2 mps 640 mmHg 70%
    22:00 +20°C° 0.1 mm 2 mps 640 mmHg 71%
    23:00 +19°C° 0.1 mm 2 mps 639 mmHg 71%

    28 June, Friday

    Time Temperature Precipitation Wind Pressure Humidity
    00:00 +19°C° 0.1 mm 2 mps 639 mmHg 72%
    01:00 +19°C° 0.1 mm 2 mps 639 mmHg 73%
    02:00 +18°C° 0.1 mm 2 mps 639 mmHg 74%
    03:00 +18°C° 0.1 mm 2 mps 638 mmHg 75%
    04:00 +19°C° 0.2 mm 1 mps 638 mmHg 75%
    05:00 +19°C° 0.2 mm 1 mps 638 mmHg 76%
    06:00 +20°C° 0.2 mm 1 mps 638 mmHg 76%
    07:00 +20°C° 0.2 mm 2 mps 638 mmHg 72%
    08:00 +21°C° 0.2 mm 2 mps 639 mmHg 68%
    09:00 +24°C° 0.2 mm 2 mps 639 mmHg 64%
    10:00 +25°C° 0.6 mm 2 mps 639 mmHg 60%
    11:00 +26°C° 0.6 mm 2 mps 639 mmHg 56%
    12:00 +27°C° 0.6 mm 1 mps 639 mmHg 52%
    13:00 +28°C° 0.7 mm 2 mps 638 mmHg 51%
    14:00 +28°C° 0.7 mm 2 mps 638 mmHg 51%
    15:00 +28°C° 0.7 mm 3 mps 638 mmHg 51%
    16:00 +26°C° 1.2 mm 3 mps 638 mmHg 58%
    17:00 +23°C° 1.2 mm 4 mps 637 mmHg 66%
    18:00 +21°C° 1.2 mm 4 mps 637 mmHg 73%
    19:00 +20°C° 1.2 mm 3 mps 637 mmHg 76%
    20:00 +19°C° 1.2 mm 2 mps 637 mmHg 78%
    21:00 +19°C° 1.2 mm 1 mps 637 mmHg 81%
    22:00 +19°C° 0.4 mm 1 mps 637 mmHg 82%
    23:00 +19°C° 0.4 mm 1 mps 637 mmHg 83%

    29 June, Saturday

    Time Temperature Precipitation Wind Pressure Humidity
    00:00 +18°C° 0.4 mm 1 mps 637 mmHg 85%
    01:00 +18°C° 0.1 mm 1 mps 637 mmHg 84%
    02:00 +18°C° 0.1 mm 1 mps 636 mmHg 83%
    03:00 +16°C° 0.1 mm 1 mps 636 mmHg 83%
    04:00 +18°C° 0 mm 1 mps 636 mmHg 81%
    05:00 +18°C° 0 mm 1 mps 636 mmHg 79%
    06:00 +19°C° 0 mm 1 mps 636 mmHg 77%
    07:00 +20°C° 0.1 mm 1 mps 637 mmHg 72%
    08:00 +22°C° 0.1 mm 1 mps 637 mmHg 67%
    09:00 +23°C° 0.1 mm 1 mps 637 mmHg 62%
    10:00 +24°C° 0.5 mm 1 mps 637 mmHg 59%
    11:00 +25°C° 0.5 mm 2 mps 637 mmHg 55%
    12:00 +26°C° 0.5 mm 2 mps 637 mmHg 52%
    13:00 +27°C° 0.8 mm 2 mps 637 mmHg 50%
    14:00 +27°C° 0.8 mm 2 mps 637 mmHg 48%
    15:00 +28°C° 0.8 mm 1 mps 637 mmHg 46%
    16:00 +26°C° 1 mm 2 mps 636 mmHg 54%
    17:00 +24°C° 1 mm 3 mps 636 mmHg 62%
    18:00 +22°C° 1 mm 4 mps 635 mmHg 70%
    19:00 +20°C° 1.1 mm 4 mps 635 mmHg 74%
    20:00 +19°C° 1.1 mm 3 mps 636 mmHg 77%
    21:00 +17°C° 1.1 mm 3 mps 636 mmHg 81%
    22:00 +17°C° 0.2 mm 2 mps 636 mmHg 81%
    23:00 +18°C° 0.2 mm 1 mps 636 mmHg 81%

    30 June, Sunday

    Time Temperature Precipitation Wind Pressure Humidity
    00:00 +18°C° 0.2 mm 1 mps 636 mmHg 80%
    01:00 +16°C° 0.1 mm 1 mps 636 mmHg 82%
    02:00 +16°C° 0.1 mm 1 mps 636 mmHg 84%
    03:00 +15°C° 0.1 mm 1 mps 636 mmHg 87%
    04:00 +16°C° 0.3 mm 1 mps 636 mmHg 84%
    05:00 +18°C° 0.3 mm 1 mps 636 mmHg 82%
    06:00 +18°C° 0.3 mm 1 mps 636 mmHg 80%
    07:00 +19°C° 0.3 mm 1 mps 636 mmHg 76%
    08:00 +21°C° 0.3 mm 1 mps 636 mmHg 72%
    09:00 +21°C° 0.3 mm 2 mps 637 mmHg 68%
    10:00 +23°C° 0.6 mm 2 mps 637 mmHg 64%
    11:00 +24°C° 0.6 mm 2 mps 637 mmHg 60%
    12:00 +25°C° 0.6 mm 2 mps 637 mmHg 55%
    13:00 +26°C° 0.4 mm 2 mps 637 mmHg 53%
    14:00 +26°C° 0.4 mm 2 mps 637 mmHg 50%
    15:00 +27°C° 0.4 mm 2 mps 637 mmHg 48%
    16:00 +25°C° 1.2 mm 2 mps 637 mmHg 56%
    17:00 +23°C° 1.2 mm 2 mps 636 mmHg 65%
    18:00 +20°C° 1.2 mm 2 mps 636 mmHg 73%
    19:00 +19°C° 0.6 mm 2 mps 636 mmHg 76%
    20:00 +18°C° 0.6 mm 2 mps 637 mmHg 78%
    21:00 +17°C° 0.6 mm 2 mps 637 mmHg 81%
    22:00 +17°C° 0.1 mm 2 mps 637 mmHg 81%
    23:00 +16°C° 0.1 mm 2 mps 637 mmHg 81%
    Show more